Fort Polk, LA

9:02 PM CST on December 13, 2017 (GMT -0600)
Polk Army Air Field

Weather History for KPOE - October, 2012

Change the Weather History Date:

Tuesday, October 9, 2012

  Actual Average Record
Temperature  
Mean Temperature 62 °F -  
Max Temperature 79 °F 77 °F 91 °F (2015)
Min Temperature 46 °F 58 °F 44 °F (2000)
Degree Days  
Heating Degree Days 2    
Growing Degree Days 12 (Base 50)    
Moisture  
Dew Point 53 °F    
Average Humidity 73    
Maximum Humidity 93    
Minimum Humidity 47    
Precipitation  
Precipitation 0.01 in - - ()
Sea Level Pressure  
Sea Level Pressure 30.08 in    
Wind  
Wind Speed 4 mph (SSE)    
Max Wind Speed 7 mph    
Max Gust Speed -    
Visibility 10 miles    
Events      
Averages and records for this station are not official NWS values.
T = Trace of Precipitation, MM = Missing Value Source: NWS Daily Summary

Daily Weather History Graph

Daily Weather History Graph

Search for Another Location

Airport or City:

Trip Planner

Search our weather history database for the weather conditions in past years. The results will help you decide how hot, cold, wet, or windy it might be!

Date:

Astronomy

Oct. 09, 2012 Rise Set
Actual Time 7:11 AM CDT 6:47 PM CDT
Civil Twilight 6:47 AM CDT 7:11 PM CDT
Nautical Twilight 6:19 AM CDT 7:39 PM CDT
Astronomical Twilight 5:51 AM CDT 8:07 PM CDT
Moon 1:11 AM CDT (10/9) 2:54 PM CDT (10/9)
Length of Visible Light 12h 24m
Length of Day
11h 35m
Last Quarter, 36% of the Moon is Illuminated
Oct 9
Last Quarter
Oct 15
New
Oct 21
First Quarter
Oct 29
Full
Nov 6
Last Quarter

Hourly Weather History & Observations

Time (CDT) Temp. Dew Point Humidity Pressure Visibility Wind Dir Wind Speed Gust Speed Precip Events Conditions
12:55 AM 48.9 °F 46.0 °F 90% 30.13 in 10.0 mi ENE 4.6 mph - N/A   Clear
1:55 AM 48.0 °F 45.0 °F 89% 30.13 in 10.0 mi Calm Calm - N/A   Clear
2:55 AM 48.0 °F 45.0 °F 89% 30.12 in 10.0 mi East 3.5 mph - N/A   Clear
3:55 AM 48.9 °F 45.0 °F 86% 30.12 in 10.0 mi East 3.5 mph - N/A   Clear
4:55 AM 46.9 °F 44.1 °F 90% 30.12 in 10.0 mi ESE 3.5 mph - N/A   Clear
5:55 AM 46.9 °F 44.1 °F 90% 30.13 in 10.0 mi Calm Calm - N/A   Clear
6:55 AM 46.9 °F 44.1 °F 90% 30.14 in 10.0 mi Calm Calm - N/A   Clear
7:55 AM 50.0 °F 46.0 °F 86% 30.14 in 10.0 mi ESE 4.6 mph - 0.01 in   Clear
8:55 AM 55.0 °F 48.0 °F 77% 30.14 in 10.0 mi ESE 5.8 mph - N/A   Clear
9:55 AM 61.0 °F 50.0 °F 67% 30.15 in 10.0 mi SE 6.9 mph - N/A   Clear
10:55 AM 66.0 °F 50.0 °F 56% 30.15 in 10.0 mi SSE 6.9 mph - N/A   Clear
11:55 AM 70.0 °F 53.1 °F 55% 30.12 in 10.0 mi South 5.8 mph - N/A   Clear
12:55 PM 72.0 °F 55.0 °F 55% 30.09 in 10.0 mi SSW 4.6 mph - N/A   Clear
1:55 PM 75.9 °F 55.0 °F 48% 30.05 in 10.0 mi Calm Calm - N/A   Clear
2:55 PM 79.0 °F 57.0 °F 47% 30.02 in 10.0 mi SSE 5.8 mph - N/A   Clear
3:55 PM 79.0 °F 57.0 °F 47% 30.00 in 10.0 mi SSW 5.8 mph - N/A   Clear
4:55 PM 79.0 °F 57.9 °F 48% 29.99 in 10.0 mi South 4.6 mph - N/A   Clear
5:55 PM 75.9 °F 59.0 °F 56% 29.98 in 10.0 mi South 6.9 mph - N/A   Clear
6:55 PM 71.1 °F 60.1 °F 68% 29.99 in 10.0 mi SSE 5.8 mph - N/A   Mostly Cloudy
7:55 PM 66.9 °F 60.1 °F 79% 30.00 in 10.0 mi SSE 6.9 mph - N/A   Clear
8:55 PM 68.0 °F 61.0 °F 78% 30.01 in 10.0 mi South 5.8 mph - N/A   Clear
9:55 PM 68.0 °F 62.1 °F 81% 30.03 in 10.0 mi South 5.8 mph - N/A   Scattered Clouds
10:55 PM 66.0 °F 62.1 °F 87% 30.04 in 10.0 mi South 4.6 mph - N/A   Clear
11:55 PM 63.0 °F 61.0 °F 93% 30.04 in 10.0 mi SSE 3.5 mph - N/A   Clear